DW9231 Weather Reports


Display with metric or nautical units.
time (UTC)temp
F
wind
direction
speed
MPH
gust
MPH
rain 1hr
in
rain 24hr
in
rain mn
in
humidity
%
barometer
mb
20260506090015 45 131 1.0 5.0 0.00 0.06 0.00 68 1012.2
20260506084512 45 115 1.0 4.0 0.00 0.06 0.00 64 1012.1
20260506083010 45 127 0.0 1.0 0.00 0.06 0.00 64 1012.3
20260506081509 45 351 0.0 2.0 0.00 0.06 0.00 63 1012.3
20260506073003 47 351 0.0 0.0 0.00 0.06 0.00 63 1012.6
20260506071502 48 351 0.0 0.0 0.00 0.06 0.00 62 1012.5
20260506061558 49 285 0.0 3.0 0.00 0.06 0.00 61 1012.3
20260506044552 49 300 1.0 5.0 0.00 0.06 0.06 62 1012.3
20260506043049 49 293 5.0 9.0 0.00 0.06 0.06 62 1012.4
20260506041549 49 326 5.0 11.0 0.00 0.06 0.06 61 1011.9
20260506040058 49 296 3.0 10.0 0.00 0.06 0.06 64 1011.8
20260506034558 49 308 2.0 6.0 0.00 0.06 0.06 64 1011.6
20260506033045 49 281 4.0 15.0 0.00 0.06 0.06 65 1011.3
20260506031555 49 271 6.0 12.0 0.00 0.06 0.06 66 1011.1
20260506030041 49 307 5.0 15.0 0.00 0.06 0.06 66 1011.0
20260506024538 50 338 7.0 13.0 0.00 0.06 0.06 65 1010.7
20260506023037 51 304 7.0 13.0 0.00 0.06 0.06 61 1010.1
20260506021534 54 155 0.0 0.0 0.00 0.06 0.06 61 1009.7
20260506020033 54 155 0.0 2.0 0.00 0.06 0.06 58 1009.2
20260506014534 55 167 0.0 2.0 0.01 0.06 0.06 58 1008.9
20260506013033 55 205 0.0 2.0 0.01 0.06 0.06 59 1008.8
20260506011537 55 236 0.0 2.0 0.01 0.06 0.06 59 1008.6
20260506010036 55 221 1.0 6.0 0.01 0.06 0.06 64 1008.7
20260506004531 56 290 0.0 4.0 0.00 0.05 0.05 55 1008.7
20260506003037 57 219 0.0 3.0 0.00 0.05 0.05 54 1008.7
20260506001531 57 101 0.0 6.0 0.00 0.05 0.05 51 1008.3
20260506000032 58 120 1.0 4.0 0.00 0.05 0.05 51 1008.5
20260505234529 57 95 0.0 2.0 0.00 0.05 0.05 50 1008.3
20260505233030 56 47 0.0 3.0 0.00 0.05 0.05 54 1008.5
20260505231537 56 153 0.0 6.0 0.00 0.05 0.05 54 1009.1
20260505230031 57 201 0.0 6.0 0.03 0.05 0.05 56 1008.8
20260505224526 54 338 2.0 6.0 0.03 0.05 0.05 62 1008.9
20260505223024 54 49 1.0 7.0 0.03 0.05 0.05 77 1009.1
20260505221522 51 100 2.0 5.0 0.03 0.05 0.05 78 1009.7
20260505220020 52 150 1.0 10.0 0.01 0.03 0.03 75 1010.0
20260505214522 57 177 2.0 9.0 0.00 0.02 0.02 60 1009.7
20260505213019 58 235 2.0 7.0 0.00 0.02 0.02 52 1009.4
20260505211518 59 164 2.0 7.0 0.00 0.02 0.02 52 1009.8
20260505210024 59 201 2.0 6.0 0.00 0.02 0.02 52 1009.7
20260505204514 58 258 2.0 6.0 0.00 0.02 0.02 57 1009.8
20260505203013 57 39 1.0 6.0 0.00 0.02 0.02 58 1010.1
20260505201512 56 353 1.0 5.0 0.00 0.02 0.02 61 1010.1
20260505200019 54 274 0.0 4.0 0.01 0.02 0.02 66 1010.3
20260505194513 53 117 0.0 5.0 0.02 0.02 0.02 71 1010.5
20260505193010 52 254 0.0 1.0 0.02 0.02 0.02 74 1010.6
20260505191508 52 211 1.0 4.0 0.02 0.02 0.02 73 1010.8
20260505190007 51 183 0.0 4.0 0.01 0.01 0.01 81 1010.8
20260505184504 52 221 2.0 6.0 0.01 0.01 0.01 75 1010.9
20260505183001 55 165 4.0 8.0 0.00 0.00 0.00 57 1010.6
20260505181601 57 144 4.0 9.0 0.00 0.00 0.00 52 1010.4
20260505180059 59 154 2.0 10.0 0.00 0.00 0.00 47 1010.4
20260505174606 59 196 4.0 9.0 0.00 0.00 0.00 46 1010.3
20260505173058 57 39 0.0 4.0 0.00 0.00 0.00 48 1010.4
20260505171604 55 218 0.0 4.0 0.00 0.00 0.00 51 1010.5
20260505170056 55 220 1.0 4.0 0.00 0.00 0.00 53 1010.8
20260505164616 53 234 0.0 4.0 0.00 0.00 0.00 55 1010.4
20260505163102 52 274 1.0 5.0 0.00 0.00 0.00 57 1010.6
20260505161610 52 239 1.0 7.0 0.00 0.00 0.00 58 1011.0
20260505153048 51 261 5.0 10.0 0.00 0.00 0.00 60 1011.3
20260505151547 51 301 2.0 8.0 0.00 0.00 0.00 64 1011.4
20260505124526 53 346 0.0 2.0 0.00 0.00 0.00 45 1010.6
20260505123023 54 6 0.0 0.0 0.00 0.00 0.00 44 1010.9
20260505121524 54 6 0.0 2.0 0.00 0.00 0.00 43 1011.0
20260505120023 54 359 0.0 0.0 0.00 0.00 0.00 43 1010.8
20260505114522 54 139 0.0 0.0 0.00 0.00 0.00 42 1010.6
20260505113020 54 139 0.0 1.0 0.00 0.00 0.00 41 1010.6
20260505111524 54 118 0.0 2.0 0.00 0.00 0.00 40 1010.5
20260505101514 55 226 0.0 0.0 0.00 0.00 0.00 37 1010.6
20260505100018 55 167 0.0 2.0 0.00 0.00 0.00 36 1010.4
20260505094516 55 353 0.0 2.0 0.00 0.00 0.00 36 1010.4
20260505093010 56 357 1.0 3.0 0.00 0.00 0.00 37 1010.4
20260505091509 56 20 0.0 2.0 0.00 0.00 0.00 36 1010.6